Theta_e
309 308 310 309 309 310 311 314 317 314 315 316 316 318 317 319 319 318 318 315 315 315 313 311 310 309 308 307 306 305 304 302 302 299 301 308 308 299 296 298 294 291 290 289
304 307 307 308 308 308 308 309 312 316 318 316 315 315 317 319 319 318 316 315 315 314 314 312 311 309 307 306 305 305 303 301 302 299 309 306 300 294 298 297 293 290 290 290
307 306 306 306 306 307 308 307 312 313 314 314 315 314 314 318 319 318 317 314 314 314 313 312 310 309 307 306 305 304 303 301 300 303 303 304 296 302 297 294 292 291 291 290
306 305 306 305 306 307 308 309 312 312 312 313 313 314 315 316 317 315 316 315 313 313 313 312 310 308 307 305 304 304 304 302 301 301 304 297 297 300 293 292 291 290 289 288
304 304 304 304 304 305 305 305 308 309 311 313 312 313 313 315 315 314 314 314 314 313 312 311 310 308 306 305 305 304 304 303 301 301 300 296 301 296 292 291 289 288 287 286
302 306 304 304 305 308 310 307 310 310 311 311 312 311 309 313 312 313 312 312 314 313 312 311 309 308 307 305 304 303 303 303 303 300 296 297 296 293 291 290 288 287 286 285
306 307 306 306 307 306 306 307 311 310 310 311 310 310 314 310 309 312 313 313 313 312 311 310 308 307 305 303 303 302 301 299 297 297 296 293 295 291 290 288 286 286 286 286
306 307 308 304 306 308 306 308 309 310 309 309 309 309 309 309 308 308 310 312 311 311 310 309 308 306 304 303 302 302 300 298 296 296 292 293 295 289 288 287 286 286 285 285
305 305 305 304 305 305 307 308 307 308 309 309 308 309 309 310 309 309 309 308 310 309 309 307 306 305 303 302 301 299 299 298 297 296 294 292 291 288 286 286 286 285 285 285
304 304 302 304 305 304 304 306 307 309 309 310 310 310 309 310 309 309 308 307 309 308 307 306 305 304 303 299 300 299 302 298 297 295 295 295 288 286 286 286 286 285 285 285
299 301 301 303 304 303 303 307 307 308 308 308 308 309 310 310 309 309 308 306 305 307 306 305 304 302 301 301 301 299 297 298 297 296 294 289 288 287 286 287 286 286 286 286
297 299 302 302 302 302 305 306 307 306 307 308 307 307 308 310 309 308 306 304 303 305 304 303 302 302 301 300 301 300 297 295 295 293 290 289 287 286 286 286 286 286 286 286
297 297 298 299 300 303 306 306 306 307 307 307 307 308 309 308 306 305 304 302 300 302 303 302 301 301 301 300 300 300 299 296 293 291 290 289 287 286 286 286 286 285 285 285
298 298 299 300 301 302 304 307 307 307 306 306 306 308 305 303 302 301 300 300 299 299 300 300 299 299 299 298 297 296 294 294 293 293 292 289 287 285 285 286 286 285 284 284
298 302 304 303 303 303 303 305 305 306 307 306 306 306 305 304 302 302 301 299 298 298 298 301 299 298 298 297 296 294 293 292 293 292 290 288 287 286 286 285 285 285 284 283
300 302 303 303 304 305 305 304 303 305 307 307 306 306 305 304 302 303 305 304 304 303 303 303 303 300 298 297 295 294 293 293 293 291 289 287 286 287 286 286 285 284 283 283
301 302 304 305 305 306 306 305 304 304 304 307 306 305 305 303 303 304 304 304 304 303 303 303 302 298 297 296 295 293 293 292 291 289 289 288 288 288 287 286 285 285 283 282
302 303 303 303 304 305 305 304 304 304 303 301 305 306 305 305 304 305 305 304 302 300 299 298 298 297 295 294 293 292 291 291 290 289 289 288 288 288 287 286 285 285 284 282
302 302 301 300 300 302 302 302 301 301 301 302 302 304 306 304 303 302 302 301 300 299 299 298 297 296 294 292 292 291 290 290 289 289 289 289 288 287 287 286 285 285 283 283
300 299 298 298 298 298 299 299 299 300 300 300 300 301 303 303 302 302 301 299 299 299 298 297 296 294 293 292 291 291 290 290 289 289 288 288 287 286 286 285 285 284 283 283
296 296 295 296 297 298 298 300 300 299 298 297 297 297 296 298 298 299 298 297 296 296 296 296 295 293 292 292 291 291 290 289 288 288 287 287 286 286 285 285 284 283 283 283
295 295 295 296 296 295 295 295 295 295 295 296 296 296 297 296 295 295 295 295 295 295 293 293 292 292 291 291 291 290 290 289 287 287 287 286 285 285 285 284 284 283 283 283
294 294 294 292 293 293 294 295 295 296 296 295 294 294 293 293 293 294 294 293 294 293 293 293 292 291 290 289 290 289 288 287 286 286 285 285 285 284 284 284 283 283 282 282
293 292 292 291 291 292 291 292 292 292 294 292 291 292 292 293 293 293 293 292 292 292 292 292 291 290 289 289 288 288 287 285 285 285 284 283 284 283 283 283 282 282 282 282
292 291 292 291 290 290 291 290 290 290 290 290 291 291 291 292 293 291 291 290 290 290 290 290 290 288 288 288 288 287 285 284 284 284 283 283 283 282 282 282 282 282 282 281
292 292 291 291 290 290 290 290 289 289 288 287 289 290 290 289 289 288 288 288 289 289 289 287 287 287 287 286 286 285 284 284 283 283 283 282 282 282 282 282 282 281 281 280
292 292 291 290 290 289 289 289 288 288 287 286 285 285 286 285 286 287 287 288 288 287 286 286 286 286 285 285 284 284 283 283 282 282 282 282 282 282 281 281 281 280 279 279
Wind_Speed
13 17 12 12 16 9 8 9 8 16 12 11 3 6 11 24 18 14 15 23 27 33 35 39 42 45 46 46 44 41 39 38 38 36 28 19 22 23 17 15 12 11 12 13
5 13 13 16 13 13 13 12 16 16 18 16 12 20 15 22 21 15 19 22 28 30 39 42 44 47 48 47 45 42 38 40 40 36 30 29 23 20 17 17 15 15 16 14
7 5 8 6 13 12 11 13 8 9 17 17 15 16 13 18 20 21 20 29 31 35 38 43 48 50 51 50 47 41 37 40 41 36 26 24 24 22 25 20 18 18 15 12
10 8 8 8 8 11 10 12 10 12 12 15 14 33 18 16 22 20 16 14 34 35 39 42 46 49 50 49 45 42 41 43 41 32 29 26 26 27 26 22 21 19 17 14
4 4 8 12 8 3 11 14 11 9 7 6 25 7 3 5 7 18 17 9 20 33 36 39 42 45 48 47 45 41 43 44 39 37 32 31 28 31 26 24 23 20 19 16
2 4 6 1 6 8 9 7 13 3 6 8 18 1 4 8 10 4 10 11 13 30 32 34 36 40 42 47 47 44 45 49 50 38 33 36 31 29 26 24 22 21 20 18
10 8 6 7 14 17 5 5 16 18 9 6 5 7 2 2 2 1 5 9 21 27 27 30 34 36 39 46 47 46 47 47 38 36 38 35 28 28 26 26 23 22 20 19
3 5 6 20 20 8 9 23 18 12 8 12 13 16 17 9 5 4 5 10 23 28 30 30 33 31 37 38 41 42 39 38 36 37 35 31 30 30 28 26 24 22 22 19
2 3 3 10 15 12 14 18 16 22 14 11 11 13 16 16 7 6 9 6 20 31 32 32 32 32 34 34 37 41 36 34 36 39 37 35 31 31 29 26 23 23 22 20
9 7 15 17 19 28 31 24 22 15 13 14 17 17 16 12 11 10 8 6 12 28 32 32 33 30 29 34 34 33 33 36 37 36 34 31 31 30 28 26 24 23 21 19
6 9 19 10 25 27 34 23 22 12 13 13 14 14 13 15 15 10 11 6 11 25 31 32 34 29 26 28 27 30 30 32 34 33 31 32 31 29 26 23 20 19 19 18
9 14 12 21 31 40 24 13 26 26 12 12 15 14 9 14 14 13 10 5 10 22 29 32 31 28 28 27 27 29 30 31 31 31 31 31 29 27 22 20 18 16 15 15
11 27 27 29 36 30 31 28 23 5 8 10 15 12 5 18 13 7 3 5 10 18 24 28 29 30 29 31 30 28 31 33 32 32 31 29 29 30 29 24 20 18 19 18
28 29 27 27 25 28 25 8 9 6 2 7 3 10 18 17 7 4 6 6 8 15 20 24 26 27 28 30 30 31 29 29 30 30 28 29 29 30 29 26 24 23 21 19
28 18 24 24 38 29 25 6 8 10 5 3 5 2 6 12 12 10 7 6 7 12 13 12 17 23 24 25 26 27 27 29 28 26 25 25 27 26 24 23 22 21 22 22
17 20 10 23 31 10 7 9 10 8 7 6 6 6 4 8 13 15 7 8 3 6 7 9 8 13 20 23 23 24 25 24 24 23 23 24 25 22 21 19 19 21 23 24
15 17 10 7 10 10 9 6 4 7 9 5 10 6 8 12 14 12 9 13 11 13 15 19 18 17 20 23 23 25 24 21 21 22 22 22 21 20 19 17 18 15 15 15
19 4 7 5 7 6 5 5 4 6 8 3 2 9 12 12 18 19 16 14 12 14 14 12 10 11 16 20 21 23 21 20 21 22 21 21 20 20 17 17 18 15 14 13
1 2 5 4 4 3 3 5 6 6 5 3 1 6 10 13 14 16 16 15 15 16 16 13 10 11 16 22 21 21 21 20 20 21 22 21 21 21 20 20 20 16 16 15
2 5 7 9 9 9 9 9 8 9 8 8 5 2 6 10 14 13 13 14 15 15 15 16 15 15 20 21 20 18 19 19 19 20 20 21 23 22 21 19 18 18 18 16
11 10 10 10 11 10 10 10 8 8 8 6 6 4 4 4 8 12 13 14 15 16 17 20 19 21 21 20 18 15 14 15 17 21 19 19 17 19 19 18 18 18 18 18
10 8 8 8 9 9 9 10 12 11 11 9 6 4 3 4 4 6 6 7 13 16 22 23 21 21 21 20 17 14 12 12 14 15 15 14 15 17 18 17 18 19 18 16
5 5 5 5 7 8 7 7 8 9 11 10 8 8 7 6 4 4 7 9 12 15 17 18 19 22 23 19 13 11 11 11 13 13 11 12 14 15 16 16 16 15 16 14
3 4 6 6 6 7 8 9 9 10 9 9 10 11 8 6 7 5 9 12 15 15 14 14 17 20 23 16 12 10 11 13 12 11 9 10 11 11 11 12 13 13 13 14
4 6 6 5 5 7 7 7 6 5 5 7 7 7 6 6 4 11 13 14 13 12 14 15 16 20 16 12 10 10 11 12 12 10 9 9 10 10 12 12 13 13 12 13
3 3 2 3 3 3 3 2 1 1 1 1 6 6 7 9 11 12 13 11 11 12 13 15 17 15 11 11 11 10 10 10 10 9 9 10 10 10 9 11 12 12 11 11
3 3 3 2 1 2 2 3 3 3 3 5 10 10 11 12 13 13 12 13 14 15 16 16 14 12 11 11 10 10 9 9 9 9 9 9 9 9 9 9 9 9 9 10
Wind_Direction
232 264 272 286 301 311 301 265 267 277 276 284 234 194 227 236 243 235 207 172 174 177 183 184 184 186 190 191 194 197 194 188 183 184 183 185 206 206 196 216 203 198 204 205
301 259 263 250 256 276 271 273 262 259 269 263 279 267 211 206 215 237 206 192 193 192 188 191 193 192 191 192 196 198 193 188 187 183 185 200 194 189 209 216 204 201 209 210
269 312 298 252 237 231 250 249 252 281 278 277 270 254 242 210 211 232 245 201 195 197 200 198 196 197 194 196 197 195 192 195 191 196 194 201 187 209 213 207 205 209 214 203
284 296 247 249 239 239 251 266 228 242 267 296 264 252 218 216 216 228 230 228 202 206 204 204 201 198 198 195 196 198 193 196 196 201 204 193 196 213 205 203 209 212 209 210
234 241 277 283 277 234 271 275 242 255 277 278 299 307 37 70 276 224 211 208 214 218 211 205 203 205 201 196 200 201 197 196 199 209 200 197 207 210 202 206 207 208 208 211
210 219 246 111 340 48 3 273 13 286 54 3 236 127 262 62 23 218 225 233 222 212 211 207 203 207 206 202 201 202 200 196 204 203 198 204 207 204 202 205 208 205 207 206
233 242 286 0 347 298 189 311 345 352 13 72 30 322 81 75 38 211 207 200 198 205 211 208 200 204 204 204 204 205 203 204 197 197 201 202 203 205 204 204 202 203 209 204
236 216 265 360 349 352 328 323 337 328 339 29 5 356 353 328 338 301 262 205 197 204 207 208 203 199 198 199 208 210 206 203 199 203 201 202 207 204 204 205 204 206 205 202
284 265 304 321 294 313 286 303 329 325 303 329 341 333 340 318 302 290 275 259 201 203 203 199 199 202 198 198 202 201 199 200 203 207 206 205 203 206 204 205 205 208 205 204
328 343 313 315 329 343 341 332 269 286 341 346 340 301 302 283 246 263 262 273 208 200 199 195 198 203 211 191 191 192 194 198 201 204 206 207 204 207 207 207 205 206 202 202
303 285 305 324 329 330 330 319 314 307 340 343 351 349 303 222 211 234 252 257 210 197 196 194 194 195 194 193 198 198 198 196 199 201 201 195 200 202 204 214 214 212 207 214
276 296 314 320 315 315 311 311 295 301 332 336 348 330 317 221 200 219 228 237 211 196 194 189 190 191 192 199 196 203 198 197 198 196 193 194 193 190 198 208 203 207 210 224
296 297 292 295 301 295 308 276 289 248 333 331 17 11 278 164 172 179 204 226 201 193 191 190 191 192 195 198 202 208 209 202 197 195 193 191 192 194 191 193 203 199 203 208
285 291 291 303 290 309 308 320 310 321 15 45 69 89 73 52 37 75 111 121 160 184 187 190 193 195 197 202 202 201 201 203 197 196 197 196 198 199 204 206 203 204 204 210
278 296 307 285 283 283 293 335 330 317 271 239 157 145 112 126 129 118 122 85 128 148 156 158 196 200 201 202 200 198 199 201 201 202 201 200 205 203 208 213 215 216 214 215
285 294 291 273 281 291 338 340 1 27 261 250 226 203 189 177 163 149 122 144 106 92 118 130 165 199 202 202 194 194 199 203 204 202 199 196 205 207 209 212 216 219 221 227
299 291 286 354 15 14 4 32 46 33 50 148 219 226 193 182 182 184 187 202 212 179 196 202 219 210 197 192 189 191 194 193 196 198 198 199 202 204 211 212 214 220 219 226
267 268 35 33 39 28 33 45 41 1 341 0 141 197 209 210 216 220 221 214 206 204 206 208 203 203 192 189 188 192 193 190 192 197 199 205 207 214 216 218 223 225 223 220
276 320 337 11 31 2 11 12 10 4 358 349 278 201 206 217 216 211 213 217 221 212 206 201 202 198 180 184 191 196 200 198 197 201 205 209 213 214 221 224 227 229 224 216
24 25 47 57 64 65 60 54 45 42 44 48 57 135 190 199 206 213 219 220 218 212 204 193 196 192 182 189 196 200 200 203 209 211 209 212 215 218 224 226 226 222 221 220
73 67 64 60 51 46 42 43 39 40 41 53 61 76 105 154 201 210 212 207 197 191 194 194 193 186 190 195 196 198 204 207 206 211 215 214 217 216 219 221 217 215 220 221
81 82 80 68 62 58 54 50 55 55 61 62 62 80 98 125 156 167 185 214 194 185 187 185 185 187 190 195 195 192 191 198 201 203 208 212 209 211 216 215 213 216 220 225
77 66 70 83 83 84 79 69 65 67 73 71 84 93 104 111 121 174 167 161 171 168 175 175 177 184 195 191 184 179 188 199 192 197 201 208 209 211 215 214 214 219 222 224
118 109 102 86 81 75 79 87 90 96 95 113 115 107 108 117 127 130 142 146 157 157 158 160 164 177 189 182 177 179 179 176 183 192 192 196 202 204 210 212 213 216 223 226
104 68 89 75 42 82 82 79 88 104 110 115 110 110 115 125 127 131 141 147 152 152 155 159 164 171 170 174 176 167 169 172 177 181 185 190 190 198 203 206 209 215 222 224
81 67 91 111 108 119 120 151 253 56 342 154 113 111 118 128 131 132 139 140 142 149 150 153 160 164 162 160 160 162 165 167 172 174 178 186 190 193 199 203 207 212 220 226
173 187 176 158 149 178 173 196 201 144 109 110 117 111 116 120 126 133 137 136 141 146 147 151 156 153 152 154 155 156 159 166 172 179 181 186 189 194 199 206 216 230 228 238